Location: Newark
(40.2997°S, 67.9000°W)
Time: 16:23:54
(UTC+00:00)

Hubble Space Telescope - Visible Passes

Search period start: 07 December 2019 00:00
Search period end: 17 December 2019 00:00
Orbit: 536 x 540 km, 28.5° (Epoch: 06 December)

Date Brightness Start Highest point End Pass type
(mag) Time Alt. Az. Time Alt. Az. Time Alt. Az.
10 Dec 2.9 00:31:46 10° N 00:32:26 10° NNE 00:33:06 10° NNE visible
11 Dec 3.1 01:59:33 10° NW 01:59:51 11° NW 01:59:51 11° NW visible
12 Dec 2.9 01:48:52 10° NW 01:50:02 14° NNW 01:50:02 14° NNW visible
13 Dec 2.7 01:38:14 10° NW 01:40:06 15° NNW 01:40:06 15° NNW visible
14 Dec 2.7 01:27:41 10° NW 01:29:59 14° N 01:30:04 14° N visible
15 Dec 2.8 01:17:12 10° NW 01:19:16 13° N 01:19:58 13° N visible
16 Dec 2.9 01:06:51 10° NW 01:08:31 12° NNW 01:09:50 11° N visible
